| time (UTC) | temp C | wind direction | speed KPH | gust KPH | rain 1hr cm | rain 24hr cm | rain mn cm | humidity % | barometer mb |
| 20260507075657 | 7 | 205 | 0.0 | 0.0 | 0.00 | 0.00 | 0.00 | 43 | 1023.5 |
| 20260507075133 | 7 | 205 | 0.0 | 0.0 | 0.00 | 0.00 | 0.00 | 43 | 1023.5 |
| 20260507074652 | 7 | 205 | 0.0 | 0.0 | 0.00 | 0.00 | 0.00 | 43 | 1023.5 |
| 20260507074150 | 7 | 205 | 0.0 | 0.0 | 0.00 | 0.00 | 0.00 | 42 | 1023.4 |
| 20260507073647 | 7 | 205 | 0.0 | 0.0 | 0.00 | 0.00 | 0.00 | 42 | 1023.4 |
| 20260507073144 | 7 | 205 | 0.0 | 0.0 | 0.00 | 0.00 | 0.00 | 42 | 1023.4 |
| 20260507072642 | 7 | 205 | 0.0 | 0.0 | 0.00 | 0.00 | 0.00 | 43 | 1023.4 |
| 20260507072140 | 7 | 205 | 0.0 | 0.0 | 0.00 | 0.00 | 0.00 | 43 | 1023.4 |
| 20260507071641 | 7 | 205 | 0.0 | 0.0 | 0.00 | 0.00 | 0.00 | 43 | 1023.5 |
| 20260507071159 | 7 | 205 | 0.0 | 0.0 | 0.00 | 0.00 | 0.00 | 43 | 1023.5 |
| 20260507070636 | 7 | 205 | 0.0 | 0.0 | 0.00 | 0.00 | 0.00 | 43 | 1023.5 |
| 20260507070133 | 7 | 205 | 0.0 | 0.0 | 0.00 | 0.00 | 0.00 | 43 | 1023.5 |
| 20260507065653 | 7 | 205 | 0.0 | 0.0 | 0.00 | 0.00 | 0.00 | 43 | 1023.5 |
| 20260507065150 | 7 | 205 | 0.0 | 0.0 | 0.00 | 0.00 | 0.00 | 43 | 1023.5 |
| 20260507064648 | 7 | 205 | 0.0 | 0.0 | 0.00 | 0.00 | 0.00 | 43 | 1023.5 |
| 20260507064146 | 7 | 205 | 0.0 | 0.0 | 0.00 | 0.00 | 0.00 | 43 | 1023.5 |
| 20260507063643 | 7 | 205 | 0.0 | 0.0 | 0.00 | 0.00 | 0.00 | 42 | 1023.5 |
| 20260507063141 | 7 | 205 | 0.0 | 0.0 | 0.00 | 0.00 | 0.00 | 42 | 1023.5 |
| 20260507062638 | 7 | 205 | 0.0 | 0.0 | 0.00 | 0.00 | 0.00 | 42 | 1023.4 |
| 20260507062137 | 7 | 205 | 0.0 | 0.0 | 0.00 | 0.00 | 0.00 | 42 | 1023.4 |
| 20260507061634 | 7 | 205 | 0.0 | 0.0 | 0.00 | 0.00 | 0.00 | 43 | 1023.3 |
| 20260507061213 | 8 | 205 | 0.0 | 0.0 | 0.00 | 0.00 | 0.00 | 42 | 1023.4 |
| 20260507060649 | 8 | 205 | 0.0 | 0.0 | 0.00 | 0.00 | 0.00 | 41 | 1023.4 |
| 20260507060147 | 8 | 205 | 0.0 | 0.0 | 0.00 | 0.00 | 0.00 | 39 | 1023.3 |
| 20260507055647 | 9 | 205 | 0.0 | 1.6 | 0.00 | 0.00 | 0.00 | 38 | 1023.3 |
| 20260507055148 | 8 | 205 | 0.0 | 1.6 | 0.00 | 0.00 | 0.00 | 40 | 1023.2 |
| 20260507054706 | 8 | 205 | 0.0 | 0.0 | 0.00 | 0.00 | 0.00 | 40 | 1023.2 |
| 20260507054142 | 8 | 205 | 0.0 | 0.0 | 0.00 | 0.00 | 0.00 | 42 | 1023.2 |
| 20260507053639 | 8 | 205 | 0.0 | 1.6 | 0.00 | 0.00 | 0.00 | 42 | 1023.1 |
| 20260507053137 | 8 | 205 | 0.0 | 1.6 | 0.00 | 0.00 | 0.00 | 42 | 1023.2 |
| 20260507052655 | 8 | 184 | 0.0 | 0.0 | 0.00 | 0.00 | 0.00 | 42 | 1023.1 |
| 20260507052152 | 8 | 184 | 0.0 | 0.0 | 0.00 | 0.00 | 0.00 | 42 | 1023.1 |
| 20260507051649 | 8 | 184 | 0.0 | 0.0 | 0.00 | 0.00 | 0.00 | 42 | 1023.3 |
| 20260507051146 | 8 | 184 | 0.0 | 0.0 | 0.00 | 0.00 | 0.00 | 43 | 1023.2 |
| 20260507050644 | 8 | 184 | 0.0 | 0.0 | 0.00 | 0.00 | 0.00 | 43 | 1023.2 |
| 20260507050141 | 8 | 184 | 0.0 | 0.0 | 0.00 | 0.00 | 0.00 | 43 | 1023.1 |
| 20260507045639 | 8 | 184 | 0.0 | 1.6 | 0.00 | 0.00 | 0.00 | 43 | 1023.1 |
| 20260507045136 | 8 | 184 | 0.0 | 1.6 | 0.00 | 0.00 | 0.00 | 44 | 1023.1 |
| 20260507044634 | 8 | 222 | 0.0 | 1.6 | 0.00 | 0.00 | 0.00 | 43 | 1023.2 |
| 20260507044213 | 8 | 222 | 0.0 | 1.6 | 0.00 | 0.00 | 0.00 | 43 | 1023.2 |
| 20260507043649 | 8 | 191 | 0.0 | 0.0 | 0.00 | 0.00 | 0.00 | 43 | 1023.2 |
| 20260507043207 | 8 | 191 | 0.0 | 0.0 | 0.00 | 0.00 | 0.00 | 43 | 1023.2 |
| 20260507042148 | 8 | 240 | 0.0 | 1.6 | 0.00 | 0.00 | 0.00 | 43 | 1023.1 |
| 20260507041650 | 8 | 245 | 0.0 | 1.6 | 0.00 | 0.00 | 0.00 | 43 | 1023.1 |
| 20260507041148 | 8 | 245 | 0.0 | 1.6 | 0.00 | 0.00 | 0.00 | 43 | 1023.0 |
| 20260507040645 | 8 | 342 | 0.0 | 0.0 | 0.00 | 0.00 | 0.00 | 43 | 1022.9 |
| 20260507040203 | 8 | 342 | 0.0 | 0.0 | 0.00 | 0.00 | 0.00 | 43 | 1022.9 |
| 20260507035640 | 8 | 342 | 0.0 | 0.0 | 0.00 | 0.00 | 0.00 | 43 | 1022.9 |
| 20260507035138 | 8 | 342 | 0.0 | 0.0 | 0.00 | 0.00 | 0.00 | 43 | 1022.9 |
| 20260507034636 | 8 | 342 | 0.0 | 0.0 | 0.00 | 0.00 | 0.00 | 44 | 1022.8 |
| 20260507034154 | 8 | 342 | 0.0 | 0.0 | 0.00 | 0.00 | 0.00 | 43 | 1022.7 |
| 20260507033652 | 8 | 342 | 0.0 | 0.0 | 0.00 | 0.00 | 0.00 | 43 | 1022.7 |
| 20260507033150 | 8 | 342 | 0.0 | 0.0 | 0.00 | 0.00 | 0.00 | 44 | 1022.6 |
| 20260507032648 | 8 | 342 | 0.0 | 0.0 | 0.00 | 0.00 | 0.00 | 44 | 1022.7 |
| 20260507032146 | 9 | 342 | 0.0 | 1.6 | 0.00 | 0.00 | 0.00 | 43 | 1022.6 |
| 20260507031644 | 9 | 342 | 0.0 | 1.6 | 0.00 | 0.00 | 0.00 | 43 | 1022.6 |
| 20260507031141 | 9 | 341 | 0.0 | 0.0 | 0.00 | 0.00 | 0.00 | 42 | 1022.4 |
| 20260507030639 | 10 | 341 | 0.0 | 0.0 | 0.00 | 0.00 | 0.00 | 42 | 1022.4 |
| 20260507030141 | 10 | 341 | 0.0 | 1.6 | 0.00 | 0.00 | 0.00 | 41 | 1022.4 |
| 20260507025640 | 10 | 341 | 0.0 | 1.6 | 0.00 | 0.00 | 0.00 | 40 | 1022.4 |
| 20260507025138 | 11 | 341 | 0.0 | 1.6 | 0.00 | 0.00 | 0.00 | 39 | 1022.3 |
| 20260507024636 | 11 | 342 | 0.0 | 4.8 | 0.00 | 0.00 | 0.00 | 39 | 1022.2 |
| 20260507024214 | 11 | 51 | 1.6 | 4.8 | 0.00 | 0.00 | 0.00 | 39 | 1022.2 |
| 20260507023711 | 11 | 1 | 0.0 | 1.6 | 0.00 | 0.00 | 0.00 | 38 | 1022.1 |
| 20260507023146 | 11 | 1 | 0.0 | 4.8 | 0.00 | 0.00 | 0.00 | 37 | 1022.1 |
| 20260507022644 | 11 | 3 | 0.0 | 4.8 | 0.00 | 0.00 | 0.00 | 36 | 1021.9 |
| 20260507022142 | 11 | 20 | 0.0 | 3.2 | 0.00 | 0.00 | 0.00 | 35 | 1021.9 |
| 20260507021641 | 12 | 63 | 0.0 | 4.8 | 0.00 | 0.00 | 0.00 | 34 | 1021.9 |
| 20260507021139 | 12 | 51 | 1.6 | 8.0 | 0.00 | 0.00 | 0.00 | 34 | 1021.8 |
| 20260507020637 | 12 | 65 | 3.2 | 8.0 | 0.00 | 0.00 | 0.00 | 34 | 1021.9 |
| 20260507020215 | 12 | 63 | 3.2 | 8.0 | 0.00 | 0.00 | 0.00 | 34 | 1021.7 |
| 20260507015654 | 12 | 24 | 4.8 | 8.0 | 0.00 | 0.00 | 0.00 | 34 | 1021.7 |
| 20260507015152 | 12 | 65 | 3.2 | 9.7 | 0.00 | 0.00 | 0.00 | 34 | 1021.8 |
| 20260507014649 | 12 | 54 | 3.2 | 9.7 | 0.00 | 0.00 | 0.00 | 33 | 1021.7 |
| 20260507014149 | 12 | 41 | 1.6 | 6.4 | 0.00 | 0.00 | 0.00 | 33 | 1021.8 |
| 20260507013646 | 12 | 46 | 1.6 | 9.7 | 0.00 | 0.00 | 0.00 | 32 | 1021.7 |
| 20260507013148 | 12 | 63 | 3.2 | 9.7 | 0.00 | 0.00 | 0.00 | 32 | 1021.7 |
| 20260507012645 | 12 | 59 | 3.2 | 11.3 | 0.00 | 0.00 | 0.00 | 31 | 1021.7 |
| 20260507012143 | 12 | 16 | 3.2 | 9.7 | 0.00 | 0.00 | 0.00 | 29 | 1021.7 |
| 20260507011641 | 12 | 38 | 3.2 | 8.0 | 0.00 | 0.00 | 0.00 | 28 | 1021.7 |
| 20260507011138 | 12 | 50 | 3.2 | 4.8 | 0.00 | 0.00 | 0.00 | 27 | 1021.7 |
| 20260507010657 | 12 | 49 | 1.6 | 8.0 | 0.00 | 0.00 | 0.00 | 26 | 1021.7 |
| 20260507010154 | 13 | 4 | 4.8 | 9.7 | 0.00 | 0.00 | 0.00 | 26 | 1021.7 |
| 20260507005651 | 13 | 9 | 3.2 | 9.7 | 0.00 | 0.00 | 0.00 | 29 | 1021.5 |
| 20260507005149 | 13 | 350 | 4.8 | 8.0 | 0.00 | 0.00 | 0.00 | 28 | 1021.7 |
| 20260507004648 | 13 | 32 | 4.8 | 9.7 | 0.00 | 0.00 | 0.00 | 26 | 1021.6 |
| 20260507004145 | 13 | 36 | 4.8 | 9.7 | 0.00 | 0.00 | 0.00 | 28 | 1021.7 |
| 20260507003643 | 13 | 45 | 3.2 | 11.3 | 0.00 | 0.00 | 0.00 | 31 | 1021.5 |
| 20260507003141 | 13 | 72 | 3.2 | 11.3 | 0.00 | 0.00 | 0.00 | 32 | 1021.5 |
| 20260507002637 | 13 | 43 | 4.8 | 8.0 | 0.00 | 0.00 | 0.00 | 33 | 1021.6 |
| 20260507002155 | 13 | 44 | 4.8 | 11.3 | 0.00 | 0.00 | 0.00 | 34 | 1021.5 |
| 20260507001713 | 13 | 58 | 6.4 | 11.3 | 0.00 | 0.00 | 0.00 | 34 | 1021.6 |
| 20260507001209 | 13 | 35 | 3.2 | 12.9 | 0.00 | 0.00 | 0.00 | 34 | 1021.4 |
| 20260507000647 | 13 | 76 | 8.0 | 12.9 | 0.00 | 0.00 | 0.00 | 34 | 1021.4 |
| 20260507000149 | 13 | 46 | 4.8 | 11.3 | 0.00 | 0.00 | 0.00 | 34 | 1021.4 |
| 20260506235646 | 13 | 5 | 6.4 | 11.3 | 0.00 | 0.00 | 0.00 | 34 | 1021.4 |
| 20260506235204 | 13 | 41 | 4.8 | 9.7 | 0.00 | 0.00 | 0.00 | 35 | 1021.3 |
| 20260506234641 | 13 | 18 | 4.8 | 8.0 | 0.00 | 0.00 | 0.00 | 35 | 1021.2 |
| 20260506234140 | 13 | 65 | 3.2 | 8.0 | 0.00 | 0.00 | 0.00 | 36 | 1021.2 |
| 20260506233637 | 13 | 32 | 4.8 | 11.3 | 0.00 | 0.00 | 0.00 | 37 | 1021.2 |
| 20260506233156 | 13 | 356 | 3.2 | 11.3 | 0.00 | 0.00 | 0.00 | 38 | 1021.2 |
| 20260506232653 | 13 | 45 | 6.4 | 11.3 | 0.00 | 0.00 | 0.00 | 37 | 1021.3 |
| 20260506232151 | 13 | 20 | 4.8 | 11.3 | 0.00 | 0.00 | 0.00 | 39 | 1021.2 |
| 20260506231648 | 13 | 92 | 3.2 | 12.9 | 0.00 | 0.00 | 0.00 | 38 | 1021.2 |
| 20260506231206 | 13 | 344 | 6.4 | 12.9 | 0.00 | 0.00 | 0.00 | 40 | 1021.3 |
| 20260506230643 | 13 | 63 | 4.8 | 14.5 | 0.00 | 0.00 | 0.00 | 40 | 1021.2 |
| 20260506230141 | 13 | 50 | 6.4 | 14.5 | 0.00 | 0.00 | 0.00 | 39 | 1021.4 |
| 20260506225639 | 13 | 60 | 6.4 | 11.3 | 0.00 | 0.00 | 0.00 | 38 | 1021.2 |
| 20260506225137 | 13 | 41 | 6.4 | 11.3 | 0.00 | 0.00 | 0.00 | 39 | 1021.3 |
| 20260506224654 | 13 | 356 | 4.8 | 9.7 | 0.00 | 0.00 | 0.00 | 38 | 1021.3 |
| 20260506224153 | 13 | 49 | 4.8 | 8.0 | 0.00 | 0.00 | 0.00 | 37 | 1021.3 |
| 20260506223654 | 13 | 50 | 1.6 | 12.9 | 0.00 | 0.00 | 0.00 | 40 | 1021.4 |
| 20260506223213 | 13 | 44 | 6.4 | 12.9 | 0.00 | 0.00 | 0.00 | 39 | 1021.4 |
| 20260506222649 | 13 | 44 | 1.6 | 12.9 | 0.00 | 0.00 | 0.00 | 37 | 1021.5 |
| 20260506222147 | 13 | 39 | 1.6 | 12.9 | 0.00 | 0.00 | 0.00 | 40 | 1021.5 |
| 20260506221645 | 13 | 39 | 3.2 | 12.9 | 0.00 | 0.00 | 0.00 | 38 | 1021.5 |
| 20260506221143 | 13 | 67 | 4.8 | 11.3 | 0.00 | 0.00 | 0.00 | 36 | 1021.6 |
| 20260506220641 | 13 | 60 | 4.8 | 11.3 | 0.00 | 0.00 | 0.00 | 36 | 1021.7 |
| 20260506220139 | 13 | 46 | 4.8 | 9.7 | 0.00 | 0.00 | 0.00 | 40 | 1021.7 |
| 20260506215638 | 13 | 46 | 3.2 | 11.3 | 0.00 | 0.00 | 0.00 | 41 | 1021.7 |
| 20260506215157 | 13 | 61 | 4.8 | 11.3 | 0.00 | 0.00 | 0.00 | 41 | 1021.7 |
| 20260506214655 | 13 | 360 | 4.8 | 9.7 | 0.00 | 0.00 | 0.00 | 41 | 1021.8 |
| 20260506214153 | 13 | 44 | 3.2 | 11.3 | 0.00 | 0.00 | 0.00 | 40 | 1021.8 |
| 20260506213649 | 13 | 65 | 6.4 | 11.3 | 0.00 | 0.00 | 0.00 | 39 | 1021.9 |
| 20260506213147 | 13 | 44 | 4.8 | 12.9 | 0.00 | 0.00 | 0.00 | 40 | 1021.8 |
| 20260506212645 | 13 | 35 | 6.4 | 12.9 | 0.00 | 0.00 | 0.00 | 39 | 1021.9 |
| 20260506212147 | 13 | 51 | 1.6 | 12.9 | 0.00 | 0.00 | 0.00 | 38 | 1021.9 |
| 20260506211644 | 13 | 129 | 4.8 | 12.9 | 0.00 | 0.00 | 0.00 | 39 | 1021.8 |
| 20260506211203 | 13 | 98 | 8.0 | 17.7 | 0.00 | 0.00 | 0.00 | 39 | 1021.8 |
| 20260506210639 | 13 | 334 | 6.4 | 17.7 | 0.00 | 0.00 | 0.00 | 39 | 1021.9 |
| 20260506210157 | 13 | 49 | 6.4 | 16.1 | 0.00 | 0.00 | 0.00 | 40 | 1021.9 |
| 20260506205717 | 13 | 56 | 3.2 | 11.3 | 0.00 | 0.00 | 0.00 | 40 | 1021.9 |
| 20260506205154 | 13 | 57 | 4.8 | 11.3 | 0.00 | 0.00 | 0.00 | 40 | 1021.7 |
| 20260506204652 | 13 | 49 | 6.4 | 9.7 | 0.00 | 0.00 | 0.00 | 39 | 1021.9 |
| 20260506204151 | 13 | 69 | 3.2 | 9.7 | 0.00 | 0.00 | 0.00 | 40 | 1021.8 |
| 20260506203649 | 13 | 8 | 4.8 | 11.3 | 0.00 | 0.00 | 0.00 | 40 | 1021.8 |
| 20260506203147 | 13 | 70 | 6.4 | 11.3 | 0.00 | 0.00 | 0.00 | 40 | 1021.7 |
| 20260506202644 | 13 | 15 | 6.4 | 11.3 | 0.00 | 0.00 | 0.00 | 40 | 1021.8 |
| 20260506202142 | 13 | 49 | 4.8 | 11.3 | 0.00 | 0.00 | 0.00 | 40 | 1021.7 |
| 20260506201640 | 13 | 46 | 6.4 | 14.5 | 0.00 | 0.00 | 0.00 | 41 | 1021.8 |
| 20260506201138 | 13 | 63 | 4.8 | 14.5 | 0.00 | 0.00 | 0.00 | 41 | 1021.8 |
| 20260506200656 | 13 | 46 | 6.4 | 11.3 | 0.00 | 0.00 | 0.00 | 40 | 1021.8 |
| 20260506200214 | 13 | 42 | 4.8 | 9.7 | 0.00 | 0.00 | 0.00 | 41 | 1021.8 |
| 20260506195651 | 13 | 45 | 4.8 | 11.3 | 0.00 | 0.00 | 0.00 | 41 | 1021.9 |
| 20260506195153 | 13 | 104 | 4.8 | 11.3 | 0.00 | 0.00 | 0.00 | 42 | 1021.9 |
| 20260506194650 | 13 | 15 | 3.2 | 11.3 | 0.00 | 0.00 | 0.00 | 41 | 1021.8 |
| 20260506194149 | 13 | 44 | 4.8 | 11.3 | 0.00 | 0.00 | 0.00 | 41 | 1021.8 |
| 20260506193647 | 13 | 53 | 3.2 | 11.3 | 0.00 | 0.00 | 0.00 | 42 | 1021.8 |
| 20260506193145 | 13 | 47 | 3.2 | 9.7 | 0.00 | 0.00 | 0.00 | 41 | 1021.9 |
| 20260506192642 | 13 | 72 | 6.4 | 9.7 | 0.00 | 0.00 | 0.00 | 41 | 1021.8 |
| 20260506192139 | 13 | 53 | 1.6 | 12.9 | 0.00 | 0.00 | 0.00 | 42 | 1021.7 |
| 20260506191657 | 13 | 63 | 6.4 | 12.9 | 0.00 | 0.00 | 0.00 | 41 | 1021.7 |
| 20260506191155 | 13 | 55 | 3.2 | 9.7 | 0.00 | 0.00 | 0.00 | 41 | 1021.8 |
| 20260506190712 | 13 | 347 | 3.2 | 11.3 | 0.00 | 0.00 | 0.00 | 41 | 1021.9 |
| 20260506190149 | 13 | 78 | 4.8 | 11.3 | 0.00 | 0.00 | 0.00 | 40 | 1021.7 |
| 20260506185647 | 13 | 63 | 3.2 | 12.9 | 0.00 | 0.00 | 0.00 | 41 | 1021.7 |
| 20260506185145 | 13 | 49 | 3.2 | 12.9 | 0.00 | 0.00 | 0.00 | 41 | 1021.7 |
| 20260506184702 | 12 | 70 | 4.8 | 16.1 | 0.00 | 0.00 | 0.00 | 42 | 1021.7 |
| 20260506184140 | 13 | 29 | 4.8 | 16.1 | 0.00 | 0.00 | 0.00 | 41 | 1021.7 |
| 20260506183657 | 13 | 343 | 4.8 | 9.7 | 0.00 | 0.00 | 0.00 | 42 | 1021.8 |
| 20260506183154 | 13 | 56 | 3.2 | 12.9 | 0.00 | 0.00 | 0.00 | 42 | 1021.7 |
| 20260506182656 | 12 | 34 | 6.4 | 12.9 | 0.00 | 0.00 | 0.00 | 41 | 1021.8 |
| 20260506182214 | 12 | 84 | 3.2 | 9.7 | 0.00 | 0.00 | 0.00 | 42 | 1021.7 |
| 20260506181651 | 13 | 64 | 6.4 | 9.7 | 0.00 | 0.00 | 0.00 | 40 | 1021.7 |
| 20260506181148 | 13 | 48 | 6.4 | 11.3 | 0.00 | 0.00 | 0.00 | 41 | 1021.7 |
| 20260506180647 | 12 | 46 | 6.4 | 14.5 | 0.00 | 0.00 | 0.00 | 42 | 1021.6 |
| 20260506180145 | 12 | 43 | 4.8 | 14.5 | 0.00 | 0.00 | 0.00 | 42 | 1021.7 |
| 20260506175704 | 12 | 79 | 4.8 | 12.9 | 0.00 | 0.00 | 0.00 | 41 | 1021.7 |
| 20260506175142 | 12 | 47 | 4.8 | 12.9 | 0.00 | 0.00 | 0.00 | 43 | 1021.6 |
| 20260506174640 | 12 | 68 | 6.4 | 12.9 | 0.00 | 0.00 | 0.00 | 42 | 1021.4 |
| 20260506174157 | 12 | 355 | 6.4 | 12.9 | 0.00 | 0.00 | 0.00 | 44 | 1021.5 |
| 20260506173655 | 12 | 51 | 4.8 | 11.3 | 0.00 | 0.00 | 0.00 | 44 | 1021.5 |
| 20260506173213 | 12 | 50 | 3.2 | 9.7 | 0.00 | 0.00 | 0.00 | 43 | 1021.4 |
| 20260506172710 | 12 | 83 | 4.8 | 12.9 | 0.00 | 0.00 | 0.00 | 44 | 1021.3 |
| 20260506172146 | 12 | 42 | 4.8 | 12.9 | 0.00 | 0.00 | 0.00 | 44 | 1021.3 |
| 20260506171644 | 12 | 37 | 6.4 | 11.3 | 0.00 | 0.00 | 0.00 | 45 | 1021.3 |
| 20260506170646 | 11 | 51 | 8.0 | 12.9 | 0.00 | 0.00 | 0.00 | 46 | 1021.2 |
| 20260506170204 | 11 | 56 | 4.8 | 12.9 | 0.00 | 0.00 | 0.00 | 44 | 1021.1 |
| 20260506165643 | 11 | 34 | 4.8 | 12.9 | 0.00 | 0.00 | 0.00 | 44 | 1021.1 |
| 20260506165201 | 11 | 61 | 6.4 | 11.3 | 0.00 | 0.00 | 0.00 | 43 | 1021.0 |
| 20260506164642 | 12 | 37 | 6.4 | 9.7 | 0.00 | 0.00 | 0.00 | 43 | 1020.9 |
| 20260506164140 | 12 | 50 | 3.2 | 9.7 | 0.00 | 0.00 | 0.00 | 44 | 1020.9 |
| 20260506163658 | 11 | 71 | 3.2 | 9.7 | 0.00 | 0.00 | 0.00 | 42 | 1020.9 |
| 20260506163155 | 11 | 30 | 3.2 | 9.7 | 0.00 | 0.00 | 0.00 | 42 | 1020.8 |
| 20260506162653 | 11 | 44 | 4.8 | 11.3 | 0.00 | 0.00 | 0.00 | 43 | 1020.7 |
| 20260506162150 | 11 | 50 | 4.8 | 11.3 | 0.00 | 0.00 | 0.00 | 43 | 1020.7 |
| 20260506161709 | 11 | 48 | 4.8 | 11.3 | 0.00 | 0.00 | 0.00 | 41 | 1020.7 |
| 20260506161146 | 11 | 42 | 4.8 | 9.7 | 0.00 | 0.00 | 0.00 | 42 | 1020.7 |
| 20260506160644 | 11 | 34 | 4.8 | 8.0 | 0.00 | 0.00 | 0.00 | 41 | 1020.7 |
| 20260506160141 | 11 | 34 | 4.8 | 6.4 | 0.00 | 0.00 | 0.00 | 41 | 1020.7 |
| 20260506155659 | 11 | 64 | 1.6 | 4.8 | 0.00 | 0.03 | 0.00 | 40 | 1020.6 |
| 20260506155156 | 11 | 90 | 1.6 | 9.7 | 0.00 | 0.03 | 0.00 | 41 | 1020.6 |
| 20260506154654 | 11 | 79 | 3.2 | 9.7 | 0.00 | 0.03 | 0.00 | 40 | 1020.5 |
| 20260506154154 | 11 | 48 | 3.2 | 8.0 | 0.00 | 0.03 | 0.00 | 40 | 1020.4 |
| 20260506153651 | 11 | 34 | 1.6 | 4.8 | 0.00 | 0.03 | 0.00 | 40 | 1020.5 |
| 20260506153148 | 11 | 48 | 3.2 | 4.8 | 0.00 | 0.03 | 0.00 | 39 | 1020.5 |
| 20260506152650 | 11 | 69 | 1.6 | 3.2 | 0.00 | 0.03 | 0.00 | 39 | 1020.4 |
| 20260506152147 | 11 | 74 | 1.6 | 3.2 | 0.00 | 0.03 | 0.00 | 39 | 1020.4 |
| 20260506151645 | 11 | 60 | 1.6 | 4.8 | 0.00 | 0.03 | 0.00 | 38 | 1020.4 |
| 20260506151204 | 10 | 60 | 1.6 | 4.8 | 0.00 | 0.03 | 0.00 | 38 | 1020.4 |
| 20260506150640 | 10 | 79 | 1.6 | 4.8 | 0.00 | 0.03 | 0.00 | 39 | 1020.4 |
| 20260506150219 | 10 | 47 | 3.2 | 4.8 | 0.00 | 0.03 | 0.00 | 38 | 1020.2 |
| 20260506145656 | 11 | 60 | 1.6 | 4.8 | 0.00 | 0.03 | 0.00 | 39 | 1020.2 |
| 20260506145154 | 11 | 60 | 1.6 | 3.2 | 0.00 | 0.03 | 0.00 | 38 | 1020.2 |
| 20260506144652 | 10 | 57 | 0.0 | 3.2 | 0.00 | 0.03 | 0.00 | 40 | 1020.3 |
| 20260506144210 | 10 | 99 | 0.0 | 1.6 | 0.00 | 0.03 | 0.00 | 39 | 1020.1 |
| 20260506143648 | 10 | 70 | 0.0 | 1.6 | 0.00 | 0.03 | 0.00 | 40 | 1020.1 |
| 20260506143146 | 10 | 87 | 0.0 | 1.6 | 0.00 | 0.03 | 0.00 | 42 | 1020.0 |
| 20260506142643 | 9 | 89 | 0.0 | 1.6 | 0.00 | 0.03 | 0.00 | 44 | 1019.9 |
| 20260506142141 | 8 | 75 | 0.0 | 1.6 | 0.00 | 0.03 | 0.00 | 44 | 1019.9 |
| 20260506141657 | 8 | 73 | 0.0 | 1.6 | 0.00 | 0.03 | 0.00 | 44 | 1019.8 |
| 20260506141155 | 8 | 221 | 0.0 | 1.6 | 0.00 | 0.03 | 0.00 | 46 | 1019.7 |
| 20260506140714 | 8 | 221 | 0.0 | 0.0 | 0.00 | 0.03 | 0.00 | 47 | 1019.7 |
| 20260506140151 | 7 | 221 | 0.0 | 0.0 | 0.00 | 0.03 | 0.00 | 50 | 1019.6 |
| 20260506135649 | 6 | 221 | 0.0 | 0.0 | 0.00 | 0.03 | 0.00 | 52 | 1019.5 |
| 20260506135151 | 6 | 221 | 0.0 | 0.0 | 0.00 | 0.03 | 0.00 | 53 | 1019.4 |
| 20260506134649 | 6 | 221 | 0.0 | 1.6 | 0.00 | 0.03 | 0.00 | 53 | 1019.3 |
| 20260506134145 | 5 | 221 | 0.0 | 1.6 | 0.00 | 0.03 | 0.00 | 53 | 1019.2 |
| 20260506133658 | 5 | 221 | 0.0 | 0.0 | 0.00 | 0.03 | 0.00 | 53 | 1019.2 |
| 20260506133156 | 5 | 221 | 0.0 | 0.0 | 0.00 | 0.03 | 0.00 | 53 | 1019.1 |
| 20260506132653 | 5 | 221 | 0.0 | 1.6 | 0.00 | 0.03 | 0.00 | 53 | 1019.1 |
| 20260506132150 | 4 | 221 | 0.0 | 1.6 | 0.00 | 0.03 | 0.00 | 53 | 1019.1 |
| 20260506131648 | 4 | 204 | 0.0 | 1.6 | 0.00 | 0.03 | 0.00 | 54 | 1019.0 |
| 20260506131146 | 3 | 204 | 0.0 | 1.6 | 0.00 | 0.03 | 0.00 | 54 | 1018.9 |
| 20260506130644 | 3 | 229 | 0.0 | 0.0 | 0.00 | 0.03 | 0.00 | 55 | 1018.9 |
| 20260506130140 | 3 | 229 | 0.0 | 0.0 | 0.00 | 0.03 | 0.00 | 55 | 1018.7 |
| 20260506125658 | 3 | 229 | 0.0 | 0.0 | 0.00 | 0.03 | 0.00 | 56 | 1018.7 |
| 20260506125155 | 3 | 229 | 0.0 | 1.6 | 0.00 | 0.03 | 0.00 | 56 | 1018.7 |
| 20260506124713 | 3 | 229 | 0.0 | 0.0 | 0.00 | 0.03 | 0.00 | 55 | 1018.6 |
| 20260506124151 | 3 | 229 | 0.0 | 1.6 | 0.00 | 0.03 | 0.00 | 55 | 1018.5 |
| 20260506123648 | 3 | 229 | 0.0 | 1.6 | 0.00 | 0.03 | 0.00 | 55 | 1018.5 |
| 20260506123148 | 3 | 229 | 0.0 | 1.6 | 0.00 | 0.03 | 0.00 | 55 | 1018.4 |
| 20260506122646 | 3 | 229 | 0.0 | 1.6 | 0.00 | 0.03 | 0.00 | 55 | 1018.4 |
| 20260506122145 | 3 | 224 | 0.0 | 1.6 | 0.00 | 0.03 | 0.00 | 55 | 1018.3 |
| 20260506121642 | 2 | 224 | 0.0 | 0.0 | 0.00 | 0.03 | 0.00 | 55 | 1018.3 |
| 20260506121159 | 3 | 224 | 0.0 | 0.0 | 0.00 | 0.03 | 0.00 | 55 | 1018.3 |
| 20260506120656 | 3 | 224 | 0.0 | 0.0 | 0.00 | 0.03 | 0.00 | 54 | 1018.2 |
| 20260506120155 | 3 | 224 | 0.0 | 0.0 | 0.00 | 0.03 | 0.00 | 54 | 1018.2 |
| 20260506115654 | 2 | 224 | 0.0 | 0.0 | 0.00 | 0.03 | 0.00 | 54 | 1018.1 |
| 20260506115152 | 2 | 224 | 0.0 | 0.0 | 0.00 | 0.03 | 0.00 | 55 | 1018.2 |
| 20260506114650 | 2 | 224 | 0.0 | 1.6 | 0.00 | 0.03 | 0.00 | 57 | 1018.1 |
| 20260506114209 | 2 | 224 | 0.0 | 1.6 | 0.00 | 0.03 | 0.00 | 58 | 1018.1 |
| 20260506113645 | 1 | 224 | 0.0 | 1.6 | 0.00 | 0.03 | 0.00 | 58 | 1018.1 |
| 20260506113203 | 1 | 224 | 0.0 | 1.6 | 0.00 | 0.03 | 0.00 | 59 | 1018.0 |
| 20260506112701 | 2 | 222 | 0.0 | 0.0 | 0.00 | 0.03 | 0.00 | 57 | 1018.1 |
| 20260506112159 | 2 | 222 | 0.0 | 0.0 | 0.00 | 0.03 | 0.00 | 55 | 1018.0 |
| 20260506111656 | 2 | 222 | 0.0 | 0.0 | 0.00 | 0.03 | 0.00 | 54 | 1017.9 |
| 20260506111155 | 2 | 223 | 0.0 | 0.0 | 0.00 | 0.03 | 0.00 | 54 | 1017.8 |
| 20260506110656 | 2 | 223 | 0.0 | 0.0 | 0.00 | 0.03 | 0.00 | 54 | 1017.8 |
| 20260506110154 | 2 | 222 | 0.0 | 0.0 | 0.00 | 0.03 | 0.00 | 54 | 1017.7 |
| 20260506105654 | 2 | 223 | 0.0 | 1.6 | 0.00 | 0.03 | 0.00 | 55 | 1017.6 |
| 20260506105152 | 2 | 223 | 0.0 | 1.6 | 0.00 | 0.03 | 0.00 | 55 | 1017.6 |
| 20260506104650 | 2 | 222 | 0.0 | 0.0 | 0.00 | 0.03 | 0.00 | 56 | 1017.6 |
| 20260506104209 | 2 | 223 | 0.0 | 0.0 | 0.00 | 0.03 | 0.00 | 56 | 1017.6 |
| 20260506103646 | 2 | 222 | 0.0 | 1.6 | 0.00 | 0.03 | 0.00 | 56 | 1017.6 |
| 20260506103203 | 2 | 223 | 0.0 | 1.6 | 0.00 | 0.03 | 0.00 | 55 | 1017.6 |
| 20260506102700 | 2 | 223 | 0.0 | 0.0 | 0.00 | 0.03 | 0.00 | 54 | 1017.7 |
| 20260506102157 | 2 | 222 | 0.0 | 0.0 | 0.00 | 0.03 | 0.00 | 54 | 1017.6 |
| 20260506101715 | 2 | 222 | 0.0 | 0.0 | 0.00 | 0.03 | 0.00 | 54 | 1017.4 |
| 20260506101152 | 2 | 223 | 0.0 | 0.0 | 0.00 | 0.03 | 0.00 | 54 | 1017.5 |
| 20260506100651 | 2 | 223 | 0.0 | 0.0 | 0.00 | 0.03 | 0.00 | 55 | 1017.4 |
| 20260506100149 | 2 | 223 | 0.0 | 1.6 | 0.00 | 0.03 | 0.00 | 56 | 1017.4 |
| 20260506095648 | 1 | 222 | 0.0 | 1.6 | 0.00 | 0.03 | 0.00 | 58 | 1017.4 |
| 20260506095146 | 1 | 223 | 0.0 | 1.6 | 0.00 | 0.03 | 0.00 | 65 | 1017.4 |
| 20260506094643 | 2 | 222 | 0.0 | 0.0 | 0.00 | 0.03 | 0.00 | 61 | 1017.4 |
| 20260506094145 | 2 | 195 | 0.0 | 0.0 | 0.00 | 0.03 | 0.00 | 60 | 1017.4 |
| 20260506093643 | 2 | 195 | 0.0 | 0.0 | 0.00 | 0.03 | 0.00 | 53 | 1017.4 |
| 20260506093201 | 2 | 195 | 0.0 | 0.0 | 0.00 | 0.03 | 0.00 | 52 | 1017.3 |
| 20260506092720 | 2 | 195 | 0.0 | 0.0 | 0.00 | 0.03 | 0.00 | 53 | 1017.3 |
| 20260506092155 | 2 | 195 | 0.0 | 0.0 | 0.00 | 0.03 | 0.00 | 52 | 1017.3 |
| 20260506091653 | 2 | 195 | 0.0 | 0.0 | 0.00 | 0.03 | 0.00 | 52 | 1017.4 |
| 20260506091151 | 2 | 195 | 0.0 | 0.0 | 0.00 | 0.03 | 0.00 | 53 | 1017.4 |
| 20260506090649 | 2 | 195 | 0.0 | 0.0 | 0.00 | 0.03 | 0.00 | 54 | 1017.4 |
| 20260506090147 | 2 | 195 | 0.0 | 0.0 | 0.00 | 0.03 | 0.00 | 57 | 1017.4 |
| 20260506085707 | 2 | 195 | 0.0 | 1.6 | 0.00 | 0.03 | 0.00 | 59 | 1017.5 |
| 20260506085143 | 2 | 195 | 0.0 | 1.6 | 0.00 | 0.03 | 0.00 | 61 | 1017.4 |
| 20260506084716 | 2 | 214 | 0.0 | 1.6 | 0.00 | 0.03 | 0.00 | 63 | 1017.5 |
| 20260506084152 | 2 | 214 | 0.0 | 1.6 | 0.00 | 0.03 | 0.00 | 64 | 1017.4 |
| 20260506083710 | 2 | 214 | 0.0 | 1.6 | 0.00 | 0.03 | 0.00 | 65 | 1017.4 |
| 20260506083207 | 2 | 214 | 0.0 | 1.6 | 0.00 | 0.03 | 0.00 | 66 | 1017.5 |
| 20260506082201 | 2 | 214 | 0.0 | 0.0 | 0.00 | 0.03 | 0.00 | 69 | 1017.5 |
| 20260506081659 | 2 | 214 | 0.0 | 0.0 | 0.00 | 0.03 | 0.00 | 70 | 1017.6 |
| 20260506081150 | 1 | 214 | 0.0 | 0.0 | 0.00 | 0.03 | 0.00 | 72 | 1017.6 |
| 20260506080648 | 1 | 214 | 0.0 | 1.6 | 0.00 | 0.03 | 0.00 | 74 | 1017.5 |
| 20260506080145 | 1 | 214 | 0.0 | 1.6 | 0.00 | 0.03 | 0.00 | 74 | 1017.5 |